Bettles, AK

10:45 AM AKDT on July 17, 2019 (GMT -0800)
Bettles

Weather History for PABT - May, 2019

Change the Weather History Date:

Friday, May 17, 2019

  Actual Average Record
Temperature  
Mean Temperature 48 °F -  
Max Temperature 54 °F 53 °F 73 °F (2015)
Min Temperature 43 °F 33 °F 19 °F (2013)
Degree Days  
Heating Degree Days 16    
Moisture  
Dew Point 31 °F    
Average Humidity 53    
Maximum Humidity 74    
Minimum Humidity 31    
Precipitation  
Precipitation 0.08 in - - ()
Snow  
Snow 0.00 in - - ()
Snow Depth 7.00 in    
Sea Level Pressure  
Sea Level Pressure 29.69 in    
Wind  
Wind Speed 11 mph (NNE)    
Max Wind Speed 18 mph    
Max Gust Speed 31 mph    
Visibility 10 miles    
Events Rain    
Averages and records for this station are not official NWS values.
T = Trace of Precipitation, MM = Missing Value Source: NWS Daily Summary

Daily Weather History Graph

Daily Weather History Graph

Search for Another Location

Airport or City:

Astronomy

May. 17, 2019 Rise Set
Actual Time 4:04 AM AKDT 12:04 AM AKDT
Civil Twilight Sun does not set Sun does not set
Nautical Twilight Sun does not set Sun does not set
Astronomical Twilight Sun does not set Sun does not set
Moon 9:50 PM AKDT 5:19 AM AKDT
Length of Visible Light 24h 00m
Length of Day
20h 00m
Waxing Gibbous, 99% of the Moon is Illuminated
May 17
Waxing Gibbous
May 18
Full
May 26
Last Quarter
Jun 3
New
Jun 9
First Quarter

Hourly Weather History & Observations

Time (AKDT) Temp. Windchill Dew Point Humidity Pressure Visibility Wind Dir Wind Speed Gust Speed Precip Events Conditions
12:53 AM 46.0 °F 39.6 °F 25.0 °F 44% 29.67 in 10.0 mi NE 15.0 mph - N/A   Partly Cloudy
1:53 AM 46.0 °F 38.8 °F 25.0 °F 44% 29.67 in 10.0 mi ENE 18.4 mph 31.1 mph N/A   Partly Cloudy
2:53 AM 45.0 °F 37.6 °F 25.0 °F 46% 29.68 in 10.0 mi NE 17.3 mph 28.8 mph N/A   Partly Cloudy
3:53 AM 44.1 °F 37.1 °F 25.0 °F 47% 29.68 in 10.0 mi NE 15.0 mph 23.0 mph N/A   Partly Cloudy
4:53 AM 44.1 °F 36.8 °F 25.0 °F 47% 29.67 in 10.0 mi NE 16.1 mph 26.5 mph N/A   Partly Cloudy
5:53 AM 44.1 °F 41.5 °F 25.0 °F 47% 29.68 in 10.0 mi Variable 4.6 mph 18.4 mph N/A   Partly Cloudy
6:53 AM 46.0 °F 41.4 °F 25.0 °F 44% 29.68 in 10.0 mi ENE 9.2 mph 19.6 mph N/A   Partly Cloudy
7:53 AM 46.9 °F - 26.1 °F 44% 29.67 in 10.0 mi NNE 11.5 mph 18.4 mph N/A   Scattered Clouds
8:53 AM 46.9 °F - 26.1 °F 44% 29.67 in 10.0 mi ENE 11.5 mph 20.7 mph N/A   Scattered Clouds
9:53 AM 48.0 °F - 27.0 °F 44% 29.68 in 10.0 mi ENE 9.2 mph - N/A   Mostly Cloudy
11:53 AM 44.1 °F 39.5 °F 35.1 °F 71% 29.69 in 10.0 mi ENE 8.1 mph - 0.04 in Rain Light Rain
12:53 PM 46.9 °F - 35.1 °F 63% 29.69 in 10.0 mi NNE 6.9 mph - N/A   Overcast
1:53 PM 50.0 °F - 34.0 °F 54% 29.69 in 10.0 mi NNW 4.6 mph - N/A   Overcast
2:53 PM 53.1 °F - 32.0 °F 45% 29.68 in 10.0 mi Variable 6.9 mph - N/A   Mostly Cloudy
3:53 PM 51.1 °F - 33.1 °F 50% 29.69 in 10.0 mi SE 8.1 mph - N/A   Overcast
4:53 PM 48.9 °F - 36.0 °F 61% 29.70 in 10.0 mi NE 13.8 mph - 0.00 in Rain Light Rain
5:53 PM 48.9 °F - 37.9 °F 66% 29.72 in 10.0 mi North 6.9 mph - 0.01 in   Mostly Cloudy
6:53 PM 48.0 °F - 37.9 °F 68% 29.71 in 10.0 mi North 6.9 mph - N/A   Mostly Cloudy
7:53 PM 48.9 °F - 37.9 °F 66% 29.71 in 10.0 mi North 3.5 mph - N/A   Mostly Cloudy
8:53 PM 48.0 °F - 37.9 °F 68% 29.71 in 10.0 mi North 6.9 mph - N/A   Mostly Cloudy
9:53 PM 48.0 °F - 36.0 °F 63% 29.71 in 10.0 mi North 8.1 mph - N/A   Mostly Cloudy
10:53 PM 46.9 °F - 35.1 °F 63% 29.71 in 10.0 mi NW 6.9 mph - N/A   Mostly Cloudy
11:53 PM 43.0 °F 39.5 °F 35.1 °F 74% 29.73 in 10.0 mi NNW 5.8 mph - N/A   Scattered Clouds